Weather History for Melfa, VA

Change the Weather History Date:

Thursday, August 1, 2013

  Actual Average (KWAL) Record (KWAL)
Temperature  
Mean Temperature 78 °F 77 °F  
Max Temperature 82 °F 85 °F 96 °F (1999)
Min Temperature 73 °F 69 °F 57 °F (2001)
Degree Days  
Heating Degree Days 0    
Month to date heating degree days  
Since 1 June heating degree days  
Since 1 July heating degree days  
Cooling Degree Days 12    
Month to date cooling degree days  
Year to date cooling degree days  
Since 1 June cooling degree days  
Growing Degree Days 28 (Base 50)    
Moisture  
Dew Point 71 °F    
Average Humidity 82    
Maximum Humidity 94    
Minimum Humidity 70    
Precipitation  
Precipitation 0.07 in 0.15 in 0.81 in (2014)
Month to date precipitation 0.15  
Year to date precipitation 23.35  
Sea Level Pressure  
Sea Level Pressure 29.93 in    
Wind  
Wind Speed 6 mph (South)    
Max Wind Speed 15 mph    
Max Gust Speed 29 mph    
Visibility 9 miles    
Events Rain , Thunderstorm    
T = Trace of Precipitation, MM = Missing Value Source: NWS Daily Summary

Daily Weather History Graph

Daily Weather History Graph

Search for Another Location

Airport:

Trip Planner

Search our weather history database for the weather conditions in past years. The results will help you decide how hot, cold, wet, or windy it might be!

Date:

Astronomy

Aug. 01, 2013 Rise Set
Actual Time 6:07 AM EDT 8:11 PM EDT
Civil Twilight 5:37 AM EDT 8:40 PM EDT
Nautical Twilight 5:02 AM EDT 9:15 PM EDT
Astronomical Twilight 4:24 AM EDT 9:53 PM EDT
Moon 1:42 AM EDT (8/1) 4:17 PM EDT (8/1)
Length of Visible Light 15h 02m
Length of Day
14h 04m
Waning Crescent, 23% of the Moon is Illuminated
Aug 1
Waning Crescent
Aug 6
New
Aug 14
First Quarter
Aug 20
Full
Aug 28
Last Quarter

Hourly Weather History & Observations

Time (EDT) Temp. Heat Index Dew Point Humidity Pressure Visibility Wind Dir Wind Speed Gust Speed Precip Events Conditions
12:15 AM 75.2 °F - 68.0 °F 78% 30.06 in 10.0 mi South 4.6 mph - N/A   Mostly Cloudy
12:35 AM 75.2 °F - 68.0 °F 78% 30.05 in 10.0 mi SSE 4.6 mph - N/A   Mostly Cloudy
12:55 AM 75.2 °F - 68.0 °F 78% 30.05 in 10.0 mi SSE 3.5 mph - N/A   Scattered Clouds
1:15 AM 75.2 °F - 68.0 °F 78% 30.04 in 5.0 mi Calm Calm - N/A   Haze
1:35 AM 73.4 °F - 68.0 °F 83% 30.04 in 10.0 mi Calm Calm - N/A   Scattered Clouds
1:55 AM 73.4 °F - 68.0 °F 83% 30.04 in 10.0 mi SE 3.5 mph - N/A   Scattered Clouds
2:15 AM 73.4 °F - 68.0 °F 83% 30.03 in 10.0 mi SSE 3.5 mph - N/A   Mostly Cloudy
2:35 AM 75.2 °F - 69.8 °F 83% 30.02 in 10.0 mi SSE 3.5 mph - N/A   Mostly Cloudy
2:55 AM 75.2 °F - 68.0 °F 78% 30.02 in 10.0 mi SE 4.6 mph - N/A   Mostly Cloudy
3:15 AM 75.2 °F - 69.8 °F 83% 30.01 in 10.0 mi SSE 5.8 mph - N/A   Mostly Cloudy
3:35 AM 75.2 °F - 69.8 °F 83% 30.00 in 10.0 mi SSE 4.6 mph - N/A   Mostly Cloudy
3:55 AM 75.2 °F - 69.8 °F 83% 29.99 in 10.0 mi SE 5.8 mph - N/A   Overcast
4:15 AM 75.2 °F - 68.0 °F 78% 29.98 in 10.0 mi SSE 4.6 mph - N/A   Scattered Clouds
4:35 AM 75.2 °F - 68.0 °F 78% 29.97 in 7.0 mi SSE 5.8 mph - N/A   Clear
4:55 AM 75.2 °F - 68.0 °F 78% 29.97 in 4.0 mi SSE 6.9 mph - N/A   Haze
5:15 AM 75.2 °F - 66.2 °F 73% 29.97 in 10.0 mi SSE 5.8 mph - N/A   Clear
5:35 AM 75.2 °F - 68.0 °F 78% 29.98 in 10.0 mi SSE 6.9 mph - N/A   Clear
5:55 AM 75.2 °F - 68.0 °F 78% 29.98 in 10.0 mi SSE 6.9 mph - N/A   Clear
6:15 AM 75.2 °F - 68.0 °F 78% 29.98 in 10.0 mi SSE 6.9 mph - N/A   Mostly Cloudy
6:35 AM 77.0 °F - 68.0 °F 74% 29.98 in 10.0 mi SSE 6.9 mph - N/A   Overcast
6:55 AM 77.0 °F - 68.0 °F 74% 29.98 in 10.0 mi South 4.6 mph - N/A   Mostly Cloudy
7:15 AM 75.2 °F - 68.0 °F 78% 29.97 in 10.0 mi SSE 8.1 mph - N/A   Mostly Cloudy
7:35 AM 77.0 °F - 68.0 °F 74% 29.97 in 10.0 mi SSE 6.9 mph - N/A Rain Light Rain
7:55 AM 77.0 °F - 69.8 °F 78% 29.97 in 10.0 mi SSE 9.2 mph - N/A   Overcast
8:15 AM 77.0 °F - 69.8 °F 78% 29.97 in 10.0 mi South 8.1 mph 17.3 mph N/A   Overcast
8:35 AM 78.8 °F - 69.8 °F 74% 29.97 in 10.0 mi South 11.5 mph 17.3 mph N/A   Mostly Cloudy
8:55 AM 78.8 °F - 69.8 °F 74% 29.97 in 10.0 mi South 15.0 mph 25.3 mph N/A   Mostly Cloudy
9:15 AM 78.8 °F - 71.6 °F 78% 29.97 in 10.0 mi South 10.4 mph 24.2 mph N/A   Mostly Cloudy
9:35 AM 77.0 °F - 71.6 °F 83% 29.96 in 10.0 mi South 11.5 mph 21.9 mph N/A   Overcast
9:55 AM 77.0 °F - 71.6 °F 83% 29.96 in 5.0 mi South 9.2 mph 18.4 mph N/A Rain Light Rain
10:15 AM 77.0 °F - 71.6 °F 83% 29.96 in 10.0 mi South 15.0 mph 20.7 mph N/A   Overcast
10:35 AM 77.0 °F - 71.6 °F 83% 29.96 in 10.0 mi South 11.5 mph 23.0 mph N/A Rain Light Rain
10:55 AM 77.0 °F - 71.6 °F 83% 29.95 in 7.0 mi South 9.2 mph 18.4 mph N/A   Drizzle
11:15 AM 77.0 °F - 73.4 °F 89% 29.94 in 7.0 mi South 11.5 mph 17.3 mph N/A   Mostly Cloudy
11:35 AM 77.0 °F - 71.6 °F 83% 29.94 in 10.0 mi South 10.4 mph 23.0 mph N/A   Mostly Cloudy
11:55 AM 78.8 °F - 71.6 °F 78% 29.93 in 10.0 mi South 11.5 mph 23.0 mph N/A   Scattered Clouds
12:15 PM 78.8 °F - 71.6 °F 78% 29.92 in 10.0 mi South 11.5 mph 28.8 mph N/A   Scattered Clouds
12:35 PM 80.6 °F 84.6 °F 71.6 °F 74% 29.92 in 10.0 mi South 10.4 mph 21.9 mph N/A   Scattered Clouds
12:55 PM 82.4 °F 87.2 °F 71.6 °F 70% 29.91 in 10.0 mi South 12.7 mph 21.9 mph N/A   Scattered Clouds
1:15 PM 82.4 °F 88.2 °F 73.4 °F 74% 29.90 in 10.0 mi South 10.4 mph 17.3 mph N/A   Scattered Clouds
1:35 PM 82.4 °F 88.2 °F 73.4 °F 74% 29.90 in 10.0 mi South 12.7 mph 18.4 mph N/A   Mostly Cloudy
1:57 PM 80.6 °F 84.6 °F 71.6 °F 74% 29.90 in 10.0 mi South 15.0 mph 20.7 mph N/A   Mostly Cloudy
2:15 PM 80.6 °F 85.4 °F 73.4 °F 79% 29.90 in 10.0 mi South 11.5 mph - N/A Thunderstorm Mostly Cloudy
2:35 PM 82.4 °F 88.2 °F 73.4 °F 74% 29.89 in 10.0 mi South 13.8 mph 18.4 mph N/A Thunderstorm Clear
2:55 PM 80.6 °F 85.4 °F 73.4 °F 79% 29.89 in 10.0 mi South 11.5 mph 18.4 mph N/A   Scattered Clouds
3:15 PM 80.6 °F 85.4 °F 73.4 °F 79% 29.89 in 10.0 mi South 10.4 mph 19.6 mph N/A   Scattered Clouds
3:35 PM 78.8 °F - 73.4 °F 83% 29.88 in 10.0 mi South 5.8 mph - N/A Rain , Thunderstorm Light Thunderstorms and Rain
3:55 PM 78.8 °F - 73.4 °F 83% 29.89 in 10.0 mi South 8.1 mph - N/A Rain , Thunderstorm Light Thunderstorms and Rain
4:15 PM 77.0 °F - 73.4 °F 89% 29.89 in 7.0 mi South 9.2 mph - N/A Rain , Thunderstorm Light Thunderstorms and Rain
4:35 PM 77.0 °F - 73.4 °F 89% 29.86 in 7.0 mi SSE 12.7 mph 17.3 mph 0.02 in Rain , Thunderstorm Light Thunderstorms and Rain
4:55 PM 75.2 °F - 73.4 °F 94% 29.85 in 7.0 mi South 10.4 mph - 0.03 in Rain , Thunderstorm Light Thunderstorms and Rain
5:15 PM 75.2 °F - 73.4 °F 94% 29.86 in 10.0 mi South 10.4 mph 16.1 mph 0.01 in Rain , Thunderstorm Light Thunderstorms and Rain
5:35 PM 75.2 °F - 73.4 °F 94% 29.86 in 7.0 mi SSW 10.4 mph 17.3 mph 0.01 in Rain , Thunderstorm Light Thunderstorms and Rain
5:55 PM 77.0 °F - 73.4 °F 89% 29.86 in 7.0 mi SSW 8.1 mph 16.1 mph 0.01 in Thunderstorm Unknown
6:15 PM 78.8 °F - 73.4 °F 83% 29.86 in 10.0 mi SSW 9.2 mph - 0.01 in   Mostly Cloudy
6:35 PM 75.2 °F - 71.6 °F 89% 29.85 in 10.0 mi SW 8.1 mph - 0.01 in Rain Light Rain
6:55 PM 75.2 °F - 71.6 °F 89% 29.85 in 7.0 mi South 5.8 mph - 0.02 in Rain , Thunderstorm Light Thunderstorms and Rain
7:15 PM 77.0 °F - 71.6 °F 83% 29.87 in 10.0 mi SSW 3.5 mph - N/A   Clear
7:35 PM 75.2 °F - 71.6 °F 89% 29.88 in 10.0 mi South 3.5 mph - N/A   Scattered Clouds
7:55 PM 75.2 °F - 71.6 °F 89% 29.87 in 10.0 mi Calm Calm - N/A   Scattered Clouds
8:15 PM 75.2 °F - 71.6 °F 89% 29.88 in 10.0 mi Calm Calm - N/A   Scattered Clouds
8:35 PM 75.2 °F - 71.6 °F 89% 29.87 in 10.0 mi Calm Calm - N/A   Light Drizzle
8:56 PM 75.2 °F - 71.6 °F 89% 29.86 in 10.0 mi South 5.8 mph - N/A   Scattered Clouds
9:15 PM 75.2 °F - 73.4 °F 94% 29.86 in 10.0 mi South 5.8 mph - N/A Thunderstorm Clear
9:55 PM 77.0 °F - 73.4 °F 89% 29.83 in 10.0 mi South 4.6 mph - N/A Rain , Thunderstorm Light Thunderstorms and Rain
10:15 PM 77.0 °F - 73.4 °F 89% 29.86 in 10.0 mi Calm Calm - N/A Rain , Thunderstorm Light Thunderstorms and Rain
10:35 PM 77.0 °F - 73.4 °F 89% 29.86 in 10.0 mi WNW 3.5 mph - N/A Thunderstorm Thunderstorm
10:55 PM 77.0 °F - 73.4 °F 89% 29.87 in 10.0 mi West 4.6 mph - 0.01 in Rain Light Rain
11:15 PM 75.2 °F - 71.6 °F 89% 29.87 in 10.0 mi West 8.1 mph 16.1 mph N/A   Mostly Cloudy
11:35 PM 75.2 °F - 71.6 °F 89% 29.86 in 10.0 mi WSW 8.1 mph - N/A   Scattered Clouds
11:55 PM 75.2 °F - 71.6 °F 89% 29.88 in 10.0 mi West 10.4 mph - N/A   Scattered Clouds